Вернуться в каталог

MOMENTUS-X1

АктивенНаукаPO
NORAD 44408·PAYLOAD·🇺🇸 United States

Запущен Jul 5, 2019 с Vostochny Cosmodrome

Loading…

Ближайшие Пролёты (ближайшие 24 часа)

TLE

СвежийSource: Space-Track

Эпоха: Sep 14, 2026, 02:45 UTC

1 44408U 19038Y   26257.11464075  .00062388  00000-0  41557-3 0  9993
2 44408  97.6627 311.1507 0005854  53.2511 306.9290 15.75197972400518

Отслеживайте MOMENTUS-X1 в реальном времени с AllMySat

Download on the App Store